sat.trackr.live / text

‹ back to catalog

STARLINK-34990

NORAD 65244 · 2025-179K

PAYLOAD ACTIVE UNKNOWN

§ Identity

Operator
Country
US
Launch date
2025-08-18
Launch site
AFWTR
Launch vehicle
Mass (kg)
RCS (m²)

Purposes: comms

External: N2YO · Heavens-Above · Gunter

§ Orbital elements

Epoch: 2026-09-20T13:31:00.209568Z

Period
93.91 min
Inclination
97.2833°
Eccentricity
0.0002145
Mean motion
15.33445206 rev/d
Perigee alt
464.1 km
Apogee alt
467.0 km
Semi-major
6,843.7 km
B*
3.6651e-4
RAAN
302.9021°
Arg perigee
84.2868°
Mean anomaly
275.8619°
Rev number
6,138

§ Raw data

STARLINK-349901 65244U 25179K   26263.56319687  .00011776  00000+0  36651-3 0  99942 65244  97.2833 302.9021 0002145  84.2868 275.8619 15.33445206 61389

JSON: /api/v1/satellites/65244 · /tle

For live sub-satellite position, see the globe view (requires WebGL).

§ Visibility from observer

Set your observer location to see the next 7 days of passes ≥ 10°. The values pass through the URL so the page stays shareable.

No JS? Fill the form by hand. The geolocation button needs JavaScript.